,,PA_Meas_PMT16A,,PR_Meas_QMR101_102,,RH_Meas_QMH101,,SR_Meas_QMS101,,TA_Meas_QMH101,,GenWind,,GenWind,
time,status,PA,status,PR,status,RH,status,SR,status,TA,status,DirAvg,status,SpdAvg,
2014-01-09, 06:49:04,VALID,916.897,VALID,0,VALID,94.9115,VALID,25.4636,VALID,18.6124,VALID,137,VALID,1.66211,
2014-01-09, 06:50:04,VALID,916.916,VALID,0,VALID,94.8963,VALID,27.0752,VALID,18.6319,VALID,97,VALID,1.66367,
2014-01-09, 06:51:04,VALID,916.927,VALID,0,VALID,94.8582,VALID,28.7942,VALID,18.6333,VALID,117,VALID,1.57187,
2014-01-09, 06:52:04,VALID,916.919,VALID,0,VALID,94.8963,VALID,30.4058,VALID,18.5929,VALID,131,VALID,2.13203,
2014-01-09, 06:53:04,VALID,916.93,VALID,0,VALID,94.9268,VALID,32.2323,VALID,18.5929,VALID,124,VALID,1.84961,
2014-01-09, 06:54:04,VALID,916.958,VALID,0,VALID,94.9649,VALID,34.3812,VALID,18.6138,VALID,125,VALID,1.78945,
2014-01-09, 06:55:04,VALID,916.958,VALID,0,VALID,94.9801,VALID,36.3151,VALID,18.5525,VALID,128,VALID,1.18125,
2014-01-09, 06:56:04,VALID,917.012,VALID,0,VALID,95.0335,VALID,38.2491,VALID,18.5748,VALID,133,VALID,2.31719,
2014-01-09, 06:57:04,VALID,917.03,VALID,0,VALID,95.125,VALID,40.2904,VALID,18.5734,VALID,115,VALID,2.77578,
2014-01-09, 06:58:04,VALID,917.037,VALID,0,VALID,95.0869,VALID,42.2244,VALID,18.6932,VALID,135,VALID,1.57187,
2014-01-09, 06:59:04,VALID,917.073,VALID,0,VALID,94.9801,VALID,44.4806,VALID,18.6932,VALID,131,VALID,1.18359,
2014-01-09, 07:00:04,VALID,917.1,VALID,0,VALID,94.9725,VALID,46.6295,VALID,18.6723,VALID,138,VALID,1.39258,
2014-01-09, 07:01:04,VALID,917.121,VALID,0,VALID,94.9725,VALID,48.6708,VALID,18.7127,VALID,129,VALID,1.90469,
2014-01-09, 07:02:04,VALID,917.16,VALID,0,VALID,94.9573,VALID,50.7122,VALID,18.7322,VALID,120,VALID,1.47617,
2014-01-09, 07:03:04,VALID,917.188,VALID,0,VALID,94.942,VALID,52.861,VALID,18.7293,VALID,116,VALID,1.21328,
2014-01-09, 07:04:04,VALID,917.202,VALID,0,VALID,94.8887,VALID,55.5471,VALID,18.7503,VALID,111,VALID,1.02461,
2014-01-09, 07:05:04,VALID,917.266,VALID,0,VALID,94.8277,VALID,58.5554,VALID,18.7892,VALID,127,VALID,1.09297,
2014-01-09, 07:06:04,VALID,917.27,VALID,0,VALID,94.6752,VALID,61.6712,VALID,18.8282,VALID,118,VALID,2.03828,
2014-01-09, 07:07:04,VALID,917.308,VALID,0,VALID,94.5304,VALID,64.8945,VALID,18.8672,VALID,126,VALID,1.90898,
2014-01-09, 07:08:04,VALID,917.333,VALID,0,VALID,94.3474,VALID,68.0102,VALID,18.8867,VALID,123,VALID,1.95508,
2014-01-09, 07:09:04,VALID,917.328,VALID,0,VALID,94.3017,VALID,71.126,VALID,18.9062,VALID,127,VALID,1.38906,
2014-01-09, 07:10:04,VALID,917.324,VALID,0,VALID,94.294,VALID,74.3493,VALID,18.9048,VALID,135,VALID,1.48281,
2014-01-09, 07:11:04,VALID,917.311,VALID,0,VALID,94.3093,VALID,77.68,VALID,18.9452,VALID,130,VALID,1.46016,
2014-01-09, 07:12:04,VALID,917.315,VALID,0,VALID,94.2788,VALID,80.7957,VALID,18.9243,VALID,121,VALID,1.94102,
2014-01-09, 07:13:04,VALID,917.334,VALID,0,VALID,94.355,VALID,83.8041,VALID,18.9647,VALID,116,VALID,1.30391,
2014-01-09, 07:14:04,VALID,917.333,VALID,0,VALID,94.1721,VALID,86.4901,VALID,19.0037,VALID,112,VALID,2.07148,
2014-01-09, 07:15:04,VALID,917.367,VALID,0,VALID,94.1416,VALID,88.9613,VALID,19.0427,VALID,110,VALID,1.00234,
2014-01-09, 07:16:04,VALID,917.399,VALID,0,VALID,93.9434,VALID,91.9696,VALID,19.0413,VALID,107,VALID,1.31367,
2014-01-09, 07:17:04,VALID,917.411,VALID,0,VALID,93.7604,VALID,94.7631,VALID,19.1012,VALID,99,VALID,1.64219,
2014-01-09, 07:18:04,VALID,917.459,VALID,0,VALID,93.4173,VALID,97.8789,VALID,19.1388,VALID,130,VALID,1.29531,
2014-01-09, 07:19:04,VALID,917.487,VALID,0,VALID,93.1124,VALID,100.78,VALID,19.2182,VALID,129,VALID,1.62383,
2014-01-09, 07:20:04,VALID,917.512,VALID,0,VALID,92.9599,VALID,103.681,VALID,19.2572,VALID,113,VALID,1.82813,
2014-01-09, 07:21:04,VALID,917.54,VALID,0,VALID,92.9142,VALID,106.474,VALID,19.2363,VALID,113,VALID,1.45469,
2014-01-09, 07:22:04,VALID,917.578,VALID,0,VALID,92.8989,VALID,109.59,VALID,19.2767,VALID,128,VALID,1.6082,
2014-01-09, 07:23:04,VALID,917.596,VALID,0,VALID,93.0057,VALID,112.598,VALID,19.3157,VALID,129,VALID,1.225,
2014-01-09, 07:24:04,VALID,917.617,VALID,0,VALID,93.0133,VALID,115.499,VALID,19.3157,VALID,147,VALID,1.2875,
2014-01-09, 07:25:04,VALID,917.677,VALID,0,VALID,93.1886,VALID,118.937,VALID,19.3547,VALID,140,VALID,0.924609,
2014-01-09, 07:26:04,VALID,917.693,VALID,0,VALID,93.2496,VALID,122.483,VALID,19.3533,VALID,142,VALID,1.22617,
2014-01-09, 07:27:04,VALID,917.724,VALID,0,VALID,93.2344,VALID,125.814,VALID,19.3742,VALID,162,VALID,1.21172,
2014-01-09, 07:28:04,VALID,917.755,VALID,0,VALID,93.1963,VALID,130.004,VALID,19.3518,VALID,145,VALID,1.29688,
2014-01-09, 07:29:04,VALID,917.796,VALID,0,VALID,93.2572,VALID,133.657,VALID,19.4132,VALID,133,VALID,0.664453,
2014-01-09, 07:30:04,VALID,917.828,VALID,0,VALID,93.3106,VALID,136.558,VALID,19.4327,VALID,151,VALID,1.13203,
2014-01-09, 07:31:04,VALID,917.852,VALID,0,VALID,93.2649,VALID,136.45,VALID,19.4298,VALID,127,VALID,1.07422,
2014-01-09, 07:32:04,VALID,917.872,VALID,0,VALID,93.2039,VALID,136.343,VALID,19.4718,VALID,134,VALID,0.741016,
2014-01-09, 07:33:04,VALID,917.911,VALID,0,VALID,93.4555,VALID,134.946,VALID,19.4898,VALID,150,VALID,0.573438,
2014-01-09, 07:34:04,VALID,917.913,VALID,0,VALID,93.3792,VALID,133.657,VALID,19.5288,VALID,129,VALID,1.04258,
2014-01-09, 07:35:04,VALID,917.923,VALID,0,VALID,93.0743,VALID,133.872,VALID,19.5093,VALID,126,VALID,1.4707,
2014-01-09, 07:36:04,VALID,917.953,VALID,0,VALID,93.059,VALID,136.665,VALID,19.5078,VALID,148,VALID,1.25156,
2014-01-09, 07:37:04,VALID,917.971,VALID,0,VALID,93.303,VALID,135.806,VALID,19.5288,VALID,134,VALID,0.906641,
2014-01-09, 07:38:04,VALID,917.977,VALID,0,VALID,93.6232,VALID,131.83,VALID,19.5873,VALID,157,VALID,0.655469,
2014-01-09, 07:39:04,VALID,917.973,VALID,0,VALID,93.2725,VALID,129.252,VALID,19.5873,VALID,121,VALID,0.86875,
2014-01-09, 07:40:04,VALID,917.979,VALID,0,VALID,93.3945,VALID,128.714,VALID,19.5873,VALID,130,VALID,0.546484,
2014-01-09, 07:41:04,VALID,918,VALID,0,VALID,93.2496,VALID,130.111,VALID,19.5468,VALID,111,VALID,1.52383,
2014-01-09, 07:42:04,VALID,917.982,VALID,0,VALID,93.12,VALID,126.995,VALID,19.5678,VALID,108,VALID,1.46992,
2014-01-09, 07:43:04,VALID,917.998,VALID,0,VALID,93.3564,VALID,124.202,VALID,19.5483,VALID,122,VALID,0.639063,
2014-01-09, 07:44:04,VALID,917.977,VALID,0,VALID,93.12,VALID,125.599,VALID,19.5483,VALID,123,VALID,1.49688,
2014-01-09, 07:45:04,VALID,917.993,VALID,0,VALID,93.181,VALID,130.434,VALID,19.5483,VALID,101,VALID,1.24688,
2014-01-09, 07:46:04,VALID,917.999,VALID,0,VALID,93.4555,VALID,133.979,VALID,19.5678,VALID,99,VALID,0.557422,
2014-01-09, 07:47:04,VALID,917.987,VALID,0,VALID,93.3487,VALID,139.244,VALID,19.5873,VALID,100,VALID,1.20781,
2014-01-09, 07:48:04,VALID,918.005,VALID,0,VALID,93.059,VALID,145.798,VALID,19.5678,VALID,96,VALID,1.46367,
2014-01-09, 07:49:04,VALID,918.016,VALID,0,VALID,93.1124,VALID,157.724,VALID,19.5468,VALID,111,VALID,1.63711,
2014-01-09, 07:50:04,VALID,918.009,VALID,0,VALID,93.2877,VALID,173.625,VALID,19.5468,VALID,98,VALID,1.37148,
2014-01-09, 07:51:04,VALID,917.99,VALID,0,VALID,93.2877,VALID,180.394,VALID,19.6068,VALID,118,VALID,1.39609,
2014-01-09, 07:52:04,VALID,917.992,VALID,0,VALID,92.9904,VALID,182.65,VALID,19.6053,VALID,118,VALID,1.59336,
2014-01-09, 07:53:04,VALID,917.991,VALID,0,VALID,93.0133,VALID,191.89,VALID,19.6638,VALID,134,VALID,1.13008,
2014-01-09, 07:54:04,VALID,917.998,VALID,0,VALID,93.1353,VALID,196.51,VALID,19.7418,VALID,107,VALID,0.972266,
2014-01-09, 07:55:04,VALID,918.002,VALID,0,VALID,92.6779,VALID,204.675,VALID,19.8003,VALID,83,VALID,0.707031,
2014-01-09, 07:56:04,VALID,918.019,VALID,0,VALID,92.6702,VALID,207.576,VALID,19.8783,VALID,147,VALID,0.761719,
2014-01-09, 07:57:04,VALID,918.015,VALID,0,VALID,92.3196,VALID,210.585,VALID,19.9383,VALID,123,VALID,0.714844,
2014-01-09, 07:58:04,VALID,918.026,VALID,0,VALID,92.4949,VALID,212.948,VALID,20.0343,VALID,131,VALID,0.277344,
2014-01-09, 07:59:04,VALID,918.014,VALID,0,VALID,92.2814,VALID,216.494,VALID,20.1513,VALID,130,VALID,0.840234,
2014-01-09, 08:00:04,VALID,918.043,VALID,0,VALID,92.2052,VALID,221.436,VALID,20.2504,VALID,137,VALID,0.202344,
2014-01-09, 08:01:04,VALID,918.047,VALID,0,VALID,92.1137,VALID,218.643,VALID,20.3269,VALID,138,VALID,0.235547,
2014-01-09, 08:02:04,VALID,918.035,VALID,0,VALID,91.8469,VALID,206.394,VALID,20.4439,VALID,80,VALID,0.975391,
2014-01-09, 08:03:04,VALID,918.034,VALID,0,VALID,91.4505,VALID,203.064,VALID,20.5235,VALID,92,VALID,0.595703,
2014-01-09, 08:04:04,VALID,918.056,VALID,0,VALID,91.0388,VALID,219.395,VALID,20.5399,VALID,116,VALID,0.505859,
2014-01-09, 08:05:04,VALID,918.087,VALID,0,VALID,89.9182,VALID,226.916,VALID,20.5204,VALID,128,VALID,0.825781,
2014-01-09, 08:06:04,VALID,918.07,VALID,0,VALID,90.0935,VALID,228.098,VALID,20.5414,VALID,126,VALID,0.916406,
2014-01-09, 08:07:04,VALID,918.091,VALID,0,VALID,90.3451,VALID,238.949,VALID,20.5204,VALID,136,VALID,0.586328,
2014-01-09, 08:08:04,VALID,918.074,VALID,0,VALID,89.9563,VALID,237.767,VALID,20.5804,VALID,139,VALID,0.725,
2014-01-09, 08:09:04,VALID,918.111,VALID,0,VALID,89.4455,VALID,224.23,VALID,20.5804,VALID,131,VALID,0.808203,
2014-01-09, 08:10:04,VALID,918.137,VALID,0,VALID,89.4913,VALID,197.799,VALID,20.5804,VALID,139,VALID,0.852344,
2014-01-09, 08:11:04,VALID,918.143,VALID,0,VALID,88.9043,VALID,193.931,VALID,20.5609,VALID,130,VALID,0.757813,
2014-01-09, 08:12:04,VALID,918.158,VALID,0,VALID,89.011,VALID,168.038,VALID,20.6015,VALID,126,VALID,0.507813,
2014-01-09, 08:13:04,VALID,918.189,VALID,0,VALID,89.3388,VALID,158.691,VALID,20.6405,VALID,126,VALID,0.417188,
2014-01-09, 08:14:04,VALID,918.221,VALID,0,VALID,89.6819,VALID,164.17,VALID,20.678,VALID,126,VALID,0.213672,
2014-01-09, 08:15:04,VALID,918.242,VALID,0,VALID,88.9424,VALID,173.84,VALID,20.639,VALID,154,VALID,0.645312,
2014-01-09, 08:16:04,VALID,918.239,VALID,0,VALID,89.4684,VALID,163.848,VALID,20.6975,VALID,154,VALID,0.473437,
2014-01-09, 08:17:04,VALID,918.26,VALID,0,VALID,89.1787,VALID,167.178,VALID,20.7365,VALID,154,VALID,0.473437,
2014-01-09, 08:18:04,VALID,918.266,VALID,0,VALID,89.4379,VALID,173.303,VALID,20.756,VALID,154,VALID,0.440625,
2014-01-09, 08:19:04,VALID,918.27,VALID,0,VALID,88.668,VALID,174.914,VALID,20.6975,VALID,158,VALID,1.25469,
2014-01-09, 08:20:04,VALID,918.287,VALID,0,VALID,88.1343,VALID,177.493,VALID,20.6194,VALID,165,VALID,1.14375,
2014-01-09, 08:21:04,VALID,918.308,VALID,0,VALID,89.1559,VALID,191.675,VALID,20.6179,VALID,175,VALID,0.627734,
2014-01-09, 08:22:04,VALID,918.316,VALID,0,VALID,88.8662,VALID,191.89,VALID,20.639,VALID,162,VALID,0.864453,
2014-01-09, 08:23:04,VALID,918.332,VALID,0,VALID,88.4392,VALID,191.89,VALID,20.6194,VALID,156,VALID,0.829687,
2014-01-09, 08:24:04,VALID,918.337,VALID,0,VALID,88.5765,VALID,182.113,VALID,20.639,VALID,144,VALID,0.969531,
2014-01-09, 08:25:04,VALID,918.342,VALID,0,VALID,89.0415,VALID,185.658,VALID,20.6585,VALID,152,VALID,0.634375,
2014-01-09, 08:26:04,VALID,918.328,VALID,0,VALID,87.9437,VALID,198.551,VALID,20.6194,VALID,167,VALID,1.25859,
2014-01-09, 08:27:04,VALID,918.322,VALID,0,VALID,88.9271,VALID,213.593,VALID,20.639,VALID,166,VALID,0.942187,
2014-01-09, 08:28:04,VALID,918.318,VALID,0,VALID,88.9653,VALID,232.395,VALID,20.6975,VALID,179,VALID,1.20938,
2014-01-09, 08:29:04,VALID,918.332,VALID,0,VALID,87.8141,VALID,237.123,VALID,20.6975,VALID,173,VALID,1.56211,
2014-01-09, 08:30:04,VALID,918.339,VALID,0,VALID,87.5854,VALID,254.206,VALID,20.7154,VALID,161,VALID,1.14688,
2014-01-09, 08:31:04,VALID,918.317,VALID,0,VALID,88.2258,VALID,268.388,VALID,20.7934,VALID,157,VALID,0.530469,
2014-01-09, 08:32:04,VALID,918.294,VALID,0,VALID,87.8065,VALID,278.702,VALID,20.8925,VALID,138,VALID,1.2375,
2014-01-09, 08:33:04,VALID,918.312,VALID,0,VALID,87.8675,VALID,291.488,VALID,20.9316,VALID,162,VALID,1.00742,
2014-01-09, 08:34:04,VALID,918.324,VALID,0,VALID,87.9361,VALID,297.397,VALID,20.969,VALID,138,VALID,0.971094,
2014-01-09, 08:35:04,VALID,918.299,VALID,0,VALID,86.6096,VALID,293.314,VALID,21.0096,VALID,128,VALID,1.58594,
2014-01-09, 08:36:04,VALID,918.273,VALID,0,VALID,86.9832,VALID,251.627,VALID,20.9105,VALID,121,VALID,1.77227,
2014-01-09, 08:37:04,VALID,918.235,VALID,0,VALID,87.1661,VALID,276.339,VALID,20.912,VALID,145,VALID,1.07578,
2014-01-09, 08:38:04,VALID,918.245,VALID,0,VALID,87.5549,VALID,292.562,VALID,20.93,VALID,119,VALID,0.883594,
2014-01-09, 08:39:04,VALID,918.21,VALID,0,VALID,88.6984,VALID,292.885,VALID,21.0486,VALID,99,VALID,1.36211,
2014-01-09, 08:40:04,VALID,918.201,VALID,0,VALID,88.1114,VALID,291.703,VALID,21.0697,VALID,111,VALID,1.34609,
2014-01-09, 08:41:04,VALID,918.198,VALID,0,VALID,88.2639,VALID,289.017,VALID,21.008,VALID,128,VALID,1.64727,
2014-01-09, 08:42:04,VALID,918.176,VALID,0,VALID,88.8128,VALID,279.777,VALID,21.047,VALID,111,VALID,1.62031,
2014-01-09, 08:43:04,VALID,918.16,VALID,0,VALID,89.476,VALID,274.19,VALID,21.1055,VALID,64,VALID,0.89375,
2014-01-09, 08:44:04,VALID,918.175,VALID,0,VALID,89.7352,VALID,291.595,VALID,21.2031,VALID,105,VALID,1.01133,
2014-01-09, 08:45:04,VALID,918.153,VALID,0,VALID,88.9424,VALID,317.489,VALID,21.2616,VALID,139,VALID,0.795313,
2014-01-09, 08:46:04,VALID,918.149,VALID,0,VALID,88.5231,VALID,334.787,VALID,21.2811,VALID,137,VALID,0.726172,
2014-01-09, 08:47:04,VALID,918.159,VALID,0,VALID,89.1635,VALID,328.233,VALID,21.3981,VALID,73,VALID,0.773828,
2014-01-09, 08:48:04,VALID,918.154,VALID,0,VALID,87.7379,VALID,351.333,VALID,21.4388,VALID,139,VALID,1.20156,
2014-01-09, 08:49:04,VALID,918.191,VALID,0,VALID,87.4482,VALID,368.523,VALID,21.3786,VALID,132,VALID,1.54062,
2014-01-09, 08:50:04,VALID,918.229,VALID,0,VALID,89.1177,VALID,338.117,VALID,21.4762,VALID,86,VALID,0.878516,
2014-01-09, 08:51:04,VALID,918.234,VALID,0,VALID,88.6984,VALID,307.282,VALID,21.5737,VALID,106,VALID,1.32031,
2014-01-09, 08:52:04,VALID,918.254,VALID,0,VALID,87.1204,VALID,301.265,VALID,21.6518,VALID,83,VALID,1.09805,
2014-01-09, 08:53:04,VALID,918.263,VALID,0,VALID,86.0684,VALID,332.745,VALID,21.6713,VALID,137,VALID,1.40664,
2014-01-09, 08:54:04,VALID,918.246,VALID,0,VALID,85.3518,VALID,346.283,VALID,21.6128,VALID,120,VALID,1.19336,
2014-01-09, 08:55:04,VALID,918.259,VALID,0,VALID,86.5105,VALID,368.416,VALID,21.6518,VALID,132,VALID,0.989844,
2014-01-09, 08:56:04,VALID,918.277,VALID,0,VALID,84.3683,VALID,401.722,VALID,21.7103,VALID,175,VALID,1.24063,
2014-01-09, 08:57:04,VALID,918.263,VALID,0,VALID,84.7724,VALID,412.037,VALID,21.7883,VALID,164,VALID,0.785937,
2014-01-09, 08:58:04,VALID,918.269,VALID,0,VALID,86.198,VALID,417.194,VALID,21.9444,VALID,91,VALID,1.17266,
2014-01-09, 08:59:04,VALID,918.282,VALID,0,VALID,84.4141,VALID,425.252,VALID,22.0615,VALID,85,VALID,1.18398,
2014-01-09, 09:00:04,VALID,918.29,VALID,0,VALID,82.7979,VALID,436.319,VALID,22.0794,VALID,124,VALID,1.89648,
2014-01-09, 09:01:04,VALID,918.294,VALID,0,VALID,81.4028,VALID,445.666,VALID,22.0403,VALID,119,VALID,2.10859,
2014-01-09, 09:02:04,VALID,918.276,VALID,0,VALID,84.0634,VALID,457.914,VALID,22.1184,VALID,144,VALID,0.792188,
2014-01-09, 09:03:04,VALID,918.283,VALID,0,VALID,82.5921,VALID,451.145,VALID,22.2974,VALID,104,VALID,1.86953,
2014-01-09, 09:04:04,VALID,918.299,VALID,0,VALID,81.6468,VALID,430.409,VALID,22.3737,VALID,124,VALID,2.0207,
2014-01-09, 09:05:04,VALID,918.291,VALID,0,VALID,82.7674,VALID,434.277,VALID,22.473,VALID,94,VALID,1.15391,
2014-01-09, 09:06:04,VALID,918.261,VALID,0,VALID,79.4817,VALID,453.402,VALID,22.5528,VALID,84,VALID,2.75703,
2014-01-09, 09:07:04,VALID,918.272,VALID,0,VALID,80.8997,VALID,440.509,VALID,22.5103,VALID,109,VALID,2.0582,
2014-01-09, 09:08:04,VALID,918.272,VALID,0,VALID,79.3369,VALID,441.153,VALID,22.5316,VALID,93,VALID,2.2043,
2014-01-09, 09:09:04,VALID,918.309,VALID,0,VALID,82.0813,VALID,442.98,VALID,22.5884,VALID,135,VALID,0.985156,
2014-01-09, 09:10:04,VALID,918.302,VALID,0,VALID,78.3458,VALID,454.369,VALID,22.7038,VALID,95,VALID,2.06719,
2014-01-09, 09:11:04,VALID,918.322,VALID,0,VALID,79.4589,VALID,481.551,VALID,22.725,VALID,79,VALID,1.46836,
2014-01-09, 09:12:04,VALID,918.322,VALID,0,VALID,80.8921,VALID,492.188,VALID,22.8421,VALID,96,VALID,1.03281,
2014-01-09, 09:13:04,VALID,918.344,VALID,0,VALID,80.6329,VALID,505.725,VALID,23.0781,VALID,98,VALID,1.30703,
2014-01-09, 09:14:04,VALID,918.389,VALID,0,VALID,76.5315,VALID,524.098,VALID,23.1136,VALID,127,VALID,2.16914,
2014-01-09, 09:15:04,VALID,918.368,VALID,0,VALID,75.3117,VALID,509.916,VALID,22.9983,VALID,79,VALID,2.83281,
2014-01-09, 09:16:04,VALID,918.376,VALID,0,VALID,78.3687,VALID,506.8,VALID,22.9415,VALID,112,VALID,1.48086,
2014-01-09, 09:17:04,VALID,918.392,VALID,0,VALID,79.4589,VALID,459.956,VALID,22.9965,VALID,165,VALID,1.39727,
2014-01-09, 09:18:04,VALID,918.394,VALID,0,VALID,78.6965,VALID,413.756,VALID,23.1331,VALID,138,VALID,1.31211,
2014-01-09, 09:19:04,VALID,918.429,VALID,0,VALID,78.0638,VALID,425.574,VALID,23.252,VALID,171,VALID,1.79414,
2014-01-09, 09:20:04,VALID,918.457,VALID,0,VALID,78.1858,VALID,421.277,VALID,23.3265,VALID,98,VALID,2.09141,
2014-01-09, 09:21:04,VALID,918.446,VALID,0,VALID,76.9203,VALID,413.756,VALID,23.4064,VALID,144,VALID,1.74141,
2014-01-09, 09:22:04,VALID,918.474,VALID,0,VALID,76.196,VALID,405.053,VALID,23.4703,VALID,175,VALID,1.19219,
2014-01-09, 09:23:04,VALID,918.459,VALID,0,VALID,75.6395,VALID,449.426,VALID,23.3674,VALID,142,VALID,2.18008,
2014-01-09, 09:24:04,VALID,918.503,VALID,0,VALID,78.6584,VALID,455.443,VALID,23.41,VALID,69,VALID,1.39961,
2014-01-09, 09:25:04,VALID,918.5,VALID,0,VALID,76.4705,VALID,471.989,VALID,23.4667,VALID,88,VALID,1.94219,
2014-01-09, 09:26:04,VALID,918.501,VALID,0,VALID,76.6458,VALID,287.942,VALID,23.5661,VALID,78,VALID,1.72383,
2014-01-09, 09:27:04,VALID,918.459,VALID,0,VALID,76.783,VALID,418.483,VALID,23.4703,VALID,62,VALID,1.69492,
2014-01-09, 09:28:04,VALID,918.506,VALID,0,VALID,78.0333,VALID,424.285,VALID,23.465,VALID,106,VALID,1.76328,
2014-01-09, 09:29:04,VALID,918.508,VALID,0,VALID,77.5454,VALID,409.995,VALID,23.5076,VALID,116,VALID,1.52344,
2014-01-09, 09:30:04,VALID,918.498,VALID,0,VALID,77.2938,VALID,357.672,VALID,23.5821,VALID,98,VALID,1.18047,
2014-01-09, 09:31:04,VALID,918.507,VALID,0,VALID,74.5494,VALID,293.744,VALID,23.6584,VALID,138,VALID,1.88633,
2014-01-09, 09:32:04,VALID,918.509,VALID,0,VALID,71.5076,VALID,301.265,VALID,23.5626,VALID,143,VALID,2.16797,
2014-01-09, 09:33:04,VALID,918.506,VALID,0,VALID,75.4413,VALID,294.281,VALID,23.5448,VALID,122,VALID,1.59492,
2014-01-09, 09:34:04,VALID,918.529,VALID,0,VALID,77.1185,VALID,300.513,VALID,23.5412,VALID,123,VALID,1.57187,
2014-01-09, 09:35:04,VALID,918.54,VALID,0,VALID,75.548,VALID,283.43,VALID,23.5235,VALID,144,VALID,2.05938,
2014-01-09, 09:36:04,VALID,918.543,VALID,0,VALID,76.196,VALID,264.628,VALID,23.4845,VALID,125,VALID,1.19961,
2014-01-09, 09:37:04,VALID,918.504,VALID,0,VALID,74.5723,VALID,254.743,VALID,23.504,VALID,98,VALID,2.43398,
2014-01-09, 09:38:04,VALID,918.517,VALID,0,VALID,75.3727,VALID,245.503,VALID,23.5857,VALID,126,VALID,2.80078,
2014-01-09, 09:39:04,VALID,918.522,VALID,0,VALID,73.5202,VALID,245.073,VALID,23.5821,VALID,134,VALID,2.5332,
2014-01-09, 09:40:04,VALID,918.49,VALID,0,VALID,75.2507,VALID,255.065,VALID,23.5643,VALID,136,VALID,2.02422,
2014-01-09, 09:41:04,VALID,918.508,VALID,0,VALID,72.9713,VALID,251.197,VALID,23.5839,VALID,150,VALID,2.66445,
2014-01-09, 09:42:04,VALID,918.495,VALID,0,VALID,73.5202,VALID,256.462,VALID,23.5235,VALID,149,VALID,2.08398,
2014-01-09, 09:43:04,VALID,918.445,VALID,0,VALID,74.2597,VALID,239.379,VALID,23.4863,VALID,135,VALID,1.70039,
2014-01-09, 09:44:04,VALID,918.448,VALID,0,VALID,74.031,VALID,238.519,VALID,23.5448,VALID,174,VALID,2.8043,
2014-01-09, 09:45:04,VALID,918.451,VALID,0,VALID,74.8162,VALID,227.883,VALID,23.6992,VALID,136,VALID,1.30938,
2014-01-09, 09:46:04,VALID,918.47,VALID,0,VALID,73.5965,VALID,222.833,VALID,23.8962,VALID,121,VALID,1.49648,
2014-01-09, 09:47:04,VALID,918.446,VALID,0,VALID,71.8888,VALID,221.006,VALID,23.8572,VALID,146,VALID,1.46445,
2014-01-09, 09:48:04,VALID,918.455,VALID,0,VALID,70.3108,VALID,214.023,VALID,23.9353,VALID,130,VALID,2.59375,
2014-01-09, 09:49:04,VALID,918.441,VALID,0,VALID,71.744,VALID,220.792,VALID,23.7986,VALID,159,VALID,1.80586,
2014-01-09, 09:50:04,VALID,918.443,VALID,0,VALID,71.622,VALID,214.345,VALID,23.7773,VALID,165,VALID,1.51367,
2014-01-09, 09:51:04,VALID,918.442,VALID,0,VALID,73.0857,VALID,216.816,VALID,23.9158,VALID,163,VALID,1.11797,
2014-01-09, 09:52:04,VALID,918.446,VALID,0,VALID,74.5799,VALID,218.428,VALID,23.9335,VALID,134,VALID,1.43125,
2014-01-09, 09:53:04,VALID,918.468,VALID,0,VALID,72.0108,VALID,277.306,VALID,23.9139,VALID,177,VALID,1.73867,
2014-01-09, 09:54:04,VALID,918.429,VALID,0,VALID,72.552,VALID,333.175,VALID,24.0115,VALID,178,VALID,0.403125,
2014-01-09, 09:55:04,VALID,918.449,VALID,0,VALID,73.3601,VALID,432.773,VALID,24.2654,VALID,177,VALID,0.507422,
2014-01-09, 09:56:04,VALID,918.48,VALID,0,VALID,70.2345,VALID,519.585,VALID,24.5192,VALID,142,VALID,1.63516,
2014-01-09, 09:57:04,VALID,918.447,VALID,0,VALID,68.7708,VALID,515.61,VALID,24.5015,VALID,144,VALID,1.23594,
2014-01-09, 09:58:04,VALID,918.478,VALID,0,VALID,70.57,VALID,263.446,VALID,24.4625,VALID,159,VALID,1.02578,
2014-01-09, 09:59:04,VALID,918.493,VALID,0,VALID,71.4238,VALID,700.301,VALID,24.3258,VALID,163,VALID,0.857813,
2014-01-09, 10:00:04,VALID,918.483,VALID,0,VALID,70.1278,VALID,717.17,VALID,24.4429,VALID,173,VALID,1.03945,
2014-01-09, 10:01:04,VALID,918.463,VALID,0,VALID,68.0466,VALID,718.244,VALID,24.6382,VALID,193,VALID,1.51016,
2014-01-09, 10:02:04,VALID,918.464,VALID,0,VALID,70.1583,VALID,722.864,VALID,24.8354,VALID,137,VALID,0.801953,
2014-01-09, 10:03:04,VALID,918.473,VALID,0,VALID,69.4112,VALID,739.195,VALID,25.0855,VALID,147,VALID,0.334766,
2014-01-09, 10:04:04,VALID,918.472,VALID,0,VALID,69.6628,VALID,742.848,VALID,25.3804,VALID,156,VALID,1.66445,
2014-01-09, 10:05:04,VALID,918.459,VALID,0,VALID,65.8892,VALID,735.757,VALID,25.5171,VALID,176,VALID,0.842969,
2014-01-09, 10:06:04,VALID,918.467,VALID,0,VALID,63.9071,VALID,779.486,VALID,25.5757,VALID,141,VALID,1.56836,
2014-01-09, 10:07:04,VALID,918.462,VALID,0,VALID,65.4318,VALID,711.475,VALID,25.3589,VALID,178,VALID,0.73125,
2014-01-09, 10:08:04,VALID,918.458,VALID,0,VALID,66.2856,VALID,695.789,VALID,25.6343,VALID,207,VALID,1.59297,
2014-01-09, 10:09:04,VALID,918.437,VALID,0,VALID,66.2094,VALID,320.067,VALID,25.771,VALID,190,VALID,1.77539,
2014-01-09, 10:10:04,VALID,918.445,VALID,0,VALID,65.4394,VALID,361.754,VALID,25.7906,VALID,184,VALID,0.6125,
2014-01-09, 10:11:04,VALID,918.419,VALID,0,VALID,63.7699,VALID,778.626,VALID,25.7886,VALID,191,VALID,1.40469,
2014-01-09, 10:12:04,VALID,918.412,VALID,0,VALID,63.8766,VALID,751.229,VALID,25.8101,VALID,176,VALID,1.4375,
2014-01-09, 10:13:04,VALID,918.384,VALID,0,VALID,67.1547,VALID,724.153,VALID,25.73,VALID,178,VALID,0.601172,
2014-01-09, 10:14:04,VALID,918.391,VALID,0,VALID,68.5498,VALID,744.137,VALID,25.9253,VALID,109,VALID,1.1418,
2014-01-09, 10:15:04,VALID,918.407,VALID,0,VALID,65.1802,VALID,746.501,VALID,25.7495,VALID,72,VALID,1.31953,
2014-01-09, 10:16:04,VALID,918.364,VALID,0,VALID,63.3582,VALID,752.41,VALID,25.7105,VALID,128,VALID,0.786719,
2014-01-09, 10:17:04,VALID,918.368,VALID,0,VALID,65.7977,VALID,773.039,VALID,25.7495,VALID,128,VALID,0.572266,
2014-01-09, 10:18:04,VALID,918.374,VALID,0,VALID,65.9959,VALID,729.848,VALID,25.7886,VALID,54,VALID,0.806641,
2014-01-09, 10:19:04,VALID,918.34,VALID,0,VALID,66.2246,VALID,794.527,VALID,25.9449,VALID,160,VALID,1.04102,
2014-01-09, 10:20:04,VALID,918.379,VALID,0,VALID,62.6569,VALID,798.503,VALID,25.9253,VALID,118,VALID,2.41289,
2014-01-09, 10:21:04,VALID,918.349,VALID,0,VALID,63.4878,VALID,770.353,VALID,25.5757,VALID,131,VALID,2.08203,
2014-01-09, 10:22:04,VALID,918.348,VALID,0,VALID,64.738,VALID,731.567,VALID,25.4351,VALID,176,VALID,1.7793,
2014-01-09, 10:23:04,VALID,918.326,VALID,0,VALID,67.574,VALID,722.757,VALID,25.4761,VALID,134,VALID,1.95625,